Location: Unspecified
(47.1700°N, 0.0000°E)
Time: 17:55:25
(UTC+00:00)

ITUPSAT 1 - Visible Passes

Search period start: 15 July 2019 00:00
Search period end: 25 July 2019 00:00
Orbit: 701 x 714 km, 98.6° (Epoch: 15 July)

Date Brightness Start Highest point End Pass type
(mag) Time Alt. Az. Time Alt. Az. Time Alt. Az.
15 Jul ? 03:08:13 10° ESE 03:12:12 27° ENE 03:16:13 10° N visible
16 Jul ? 02:18:41 10° ENE 02:19:23 10° NE 02:20:05 10° NE visible
17 Jul ? 02:59:25 10° ESE 03:03:07 23° ENE 03:06:51 10° N visible
19 Jul ? 02:50:41 10° ESE 02:54:04 20° ENE 02:57:26 10° NNE visible
20 Jul ? 03:33:30 10° SE 03:38:01 44° ENE 03:42:32 10° N visible
21 Jul ? 02:42:04 10° E 02:44:59 17° ENE 02:47:56 10° NNE visible
22 Jul ? 03:24:33 10° SE 03:28:53 37° ENE 03:33:15 10° N visible
23 Jul ? 02:33:34 10° E 02:35:57 14° ENE 02:38:20 10° NNE visible
24 Jul ? 03:15:39 10° SE 03:19:47 31° ENE 03:23:57 10° N visible
